Date String (YYYY-MM-DD hh:mm:ss) UTC,Instrument flags,absolute air pressure of the measurement (hPa),sample flow rate (lpm),inlet stack bypass flow (lpm),air temperature of the measurement (°C),ambient temperature measured by the external sensor (°C),aerosol sample conditioner tube jacket temperature (°C),OPC LED temperature (°C),internal box temperature (°C),relative humidity of the measurement (%),span deviation,mass concentration of particles derived from Lorenz-Mie calculation of OPC scattering (μg/m³),mass concentration of particles derived from Lorenz-Mie calculation of OPC scattering (μg/m³),mass concentration of particles derived from Lorenz-Mie calculation of OPC scattering (μg/m³)
DateTimeUTC,F1_M11,P_M11,Q1_M11,Q2_M11,T1_M11,T2_M11,T3_M11,T4_M11,T5_M11,U1_M11,ZSPAN_M11,X0_M11,X2_M11,X1_M11
2023-11-15 03:00:00,SystemResetWarning,0831.5,5.00,000.00,027.9,026.6,000.0,036.3,029.2,7.3,0000.0,0004.40,0002.04,0001.74
2023-11-15 03:01:00,SystemResetWarning,0831.5,5.00,000.00,027.9,026.6,000.0,036.3,029.2,7.3,0000.0,0003.85,0002.10,0001.78
2023-11-15 03:02:00,SystemResetWarning,0831.5,5.00,000.00,027.8,026.6,000.0,036.3,029.2,7.4,0000.0,0003.21,0002.14,0001.81
2023-11-15 03:03:00,SystemResetWarning,0831.5,4.99,000.00,027.8,026.6,000.0,036.3,029.2,7.4,0000.0,0003.19,0002.16,0001.84
2023-11-15 03:04:00,SystemResetWarning,0831.5,5.00,000.00,027.8,026.6,000.0,036.3,029.1,7.5,0000.0,0003.13,0002.17,0001.87
2023-11-15 03:05:00,SystemResetWarning,0831.4,5.00,000.00,027.8,026.6,000.0,036.3,029.1,7.5,0000.0,0003.32,0002.20,0001.90
2023-11-15 03:06:00,SystemResetWarning,0831.4,5.00,000.00,027.8,026.5,000.0,036.3,029.1,7.6,0000.0,0003.68,0002.26,0001.94
2023-11-15 03:07:00,SystemResetWarning,0831.5,5.01,000.00,027.8,026.5,000.0,036.3,029.2,7.7,0000.0,0003.78,0002.30,0001.99
2023-11-15 03:08:00,SystemResetWarning,0831.4,5.00,000.00,027.8,026.5,000.0,036.3,029.1,7.7,0000.0,0003.78,0002.33,0002.01
2023-11-15 03:09:00,SystemResetWarning,0831.5,5.01,000.00,027.8,026.5,000.0,036.3,029.1,7.9,0000.0,0004.06,0002.38,0002.03
2023-11-15 03:10:00,SystemResetWarning,0831.4,5.00,000.00,027.8,026.5,000.0,036.2,029.1,7.9,0000.0,0005.87,0002.43,0002.07
2023-11-15 03:11:00,SystemResetWarning,0831.4,5.01,000.00,027.8,026.5,000.0,036.2,029.1,7.9,0000.0,0006.19,0002.50,0002.09
2023-11-15 03:12:00,SystemResetWarning,0831.5,5.00,000.00,027.8,026.5,000.0,036.2,029.0,7.9,0000.0,0006.28,0002.51,0002.10
2023-11-15 03:13:00,SystemResetWarning,0831.5,4.99,000.00,027.7,026.5,000.0,036.2,029.1,8.0,0000.0,0006.12,0002.51,0002.13
2023-11-15 03:14:00,SystemResetWarning,0831.5,4.99,000.00,027.7,026.5,000.0,036.2,029.0,8.0,0000.0,0006.95,0002.55,0002.16
2023-11-15 03:15:00,SystemResetWarning,0831.4,5.01,000.00,027.7,026.5,000.0,036.2,029.0,8.0,0000.0,0007.32,0002.57,0002.18
2023-11-15 03:16:00,SystemResetWarning,0831.4,5.02,000.00,027.7,026.5,000.0,036.2,029.0,8.0,0000.0,0007.99,0002.62,0002.20
2023-11-15 03:17:00,SystemResetWarning,0831.5,5.00,000.00,027.7,026.5,000.0,036.2,029.1,8.0,0000.0,0007.93,0002.65,0002.21
2023-11-15 03:18:00,SystemResetWarning,0831.5,4.99,000.00,027.7,026.5,000.0,036.2,029.0,8.0,0000.0,0007.80,0002.64,0002.23
2023-11-15 03:19:00,SystemResetWarning,0831.5,4.99,000.00,027.7,026.5,000.0,036.2,029.0,7.8,0000.0,0007.87,0002.67,0002.26
2023-11-15 03:20:00,SystemResetWarning,0831.5,5.00,000.00,027.7,026.5,000.0,036.2,029.0,7.7,0000.0,0007.88,0002.69,0002.27
2023-11-15 03:21:00,SystemResetWarning,0831.5,5.01,000.00,027.7,026.5,000.0,036.2,029.0,7.7,0000.0,0006.73,0002.69,0002.29
2023-11-15 03:22:00,SystemResetWarning,0831.4,5.01,000.00,027.7,026.5,000.0,036.1,029.0,7.6,0000.0,0006.70,0002.69,0002.30
2023-11-15 03:23:00,SystemResetWarning,0831.4,5.01,000.00,027.7,026.5,000.0,036.1,029.0,7.6,0000.0,0007.35,0002.72,0002.31
2023-11-15 03:24:00,SystemResetWarning,0831.4,4.99,000.00,027.7,026.4,000.0,036.1,028.9,7.7,0000.0,0007.46,0002.78,0002.33
2023-11-15 03:25:00,SystemResetWarning,0831.4,4.99,000.00,027.7,026.4,000.0,036.1,028.9,7.7,0000.0,0007.31,0002.80,0002.33
2023-11-15 03:26:00,SystemResetWarning,0831.3,5.00,000.00,027.6,026.4,000.0,036.1,028.9,7.7,0000.0,0007.30,0002.83,0002.32
2023-11-15 03:27:00,SystemResetWarning,0831.3,5.00,000.00,027.6,026.4,000.0,036.1,028.9,7.7,0000.0,0007.31,0002.83,0002.32
2023-11-15 03:28:00,SystemResetWarning,0831.3,5.00,000.00,027.6,026.4,000.0,036.1,028.9,7.8,0000.0,0006.96,0002.86,0002.32
2023-11-15 03:29:00,SystemResetWarning,0831.3,5.00,000.00,027.6,026.4,000.0,036.1,028.9,7.8,0000.0,0006.91,0002.83,0002.30
2023-11-15 03:30:00,SystemResetWarning,0831.4,5.00,000.00,027.6,026.4,000.0,036.1,028.8,7.8,0000.0,0006.84,0002.83,0002.29
2023-11-15 03:31:00,SystemResetWarning,0831.4,5.00,000.00,027.6,026.3,000.0,036.1,028.9,7.8,0000.0,0007.33,0002.80,0002.29
2023-11-15 03:32:00,SystemResetWarning,0831.4,5.00,000.00,027.6,026.3,000.0,036.1,028.9,7.8,0000.0,0007.66,0002.76,0002.27
2023-11-15 03:33:00,SystemResetWarning,0831.4,5.00,000.00,027.6,026.3,000.0,036.1,028.9,7.9,0000.0,0007.51,0002.71,0002.24
2023-11-15 03:34:00,SystemResetWarning,0831.4,4.99,000.00,027.6,026.3,000.0,036.0,028.9,7.9,0000.0,0006.84,0002.67,0002.24
2023-11-15 03:35:00,SystemResetWarning,0831.4,4.99,000.00,027.6,026.3,000.0,036.1,028.9,7.9,0000.0,0006.55,0002.64,0002.22
2023-11-15 03:36:00,SystemResetWarning,0831.4,5.00,000.00,027.6,026.3,000.0,036.0,028.8,7.9,0000.0,0006.38,0002.59,0002.19
2023-11-15 03:37:00,SystemResetWarning,0831.5,5.01,000.00,027.6,026.3,000.0,036.0,028.8,7.8,0000.0,0005.83,0002.54,0002.18
2023-11-15 03:38:00,SystemResetWarning,0831.5,5.00,000.00,027.5,026.2,000.0,036.0,028.8,7.8,0000.0,0004.78,0002.54,0002.17
2023-11-15 03:39:00,SystemResetWarning,0831.5,5.00,000.00,027.5,026.2,000.0,036.0,028.8,7.7,0000.0,0004.71,0002.50,0002.16
2023-11-15 03:40:00,SystemResetWarning,0831.4,5.00,000.00,027.5,026.2,000.0,036.0,028.8,7.8,0000.0,0004.78,0002.54,0002.17
2023-11-15 03:41:00,SystemResetWarning,0831.5,5.00,000.00,027.5,026.2,000.0,036.0,028.7,7.8,0000.0,0004.75,0002.54,0002.17
2023-11-15 03:42:00,SystemResetWarning,0831.4,5.00,000.00,027.5,026.2,000.0,036.0,028.8,7.8,0000.0,0004.04,0002.58,0002.19
2023-11-15 03:43:00,SystemResetWarning,0831.5,4.99,000.00,027.5,026.2,000.0,036.0,028.8,7.8,0000.0,0003.56,0002.59,0002.19
2023-11-15 03:44:00,SystemResetWarning,0831.5,5.00,000.00,027.5,026.2,000.0,036.0,028.8,7.8,0000.0,0003.62,0002.62,0002.20
2023-11-15 03:45:00,SystemResetWarning,0831.5,5.01,000.00,027.5,026.2,000.0,036.0,028.8,7.9,0000.0,0003.53,0002.62,0002.19
2023-11-15 03:46:00,SystemResetWarning,0831.5,5.00,000.00,027.5,026.2,000.0,035.9,028.7,8.0,0000.0,0003.50,0002.63,0002.19
2023-11-15 03:47:00,SystemResetWarning,0831.5,5.00,000.00,027.5,026.2,000.0,035.9,028.8,8.1,0000.0,0003.56,0002.66,0002.21
2023-11-15 03:48:00,SystemResetWarning,0831.5,5.00,000.00,027.5,026.2,000.0,035.9,028.7,8.1,0000.0,0003.50,0002.63,0002.21
2023-11-15 03:49:00,SystemResetWarning,0831.6,5.00,000.00,027.5,026.2,000.0,035.9,028.7,8.0,0000.0,0003.37,0002.60,0002.20
2023-11-15 03:50:00,SystemResetWarning,0831.6,4.99,000.00,027.4,026.2,000.0,035.9,028.7,7.9,0000.0,0003.41,0002.61,0002.21
2023-11-15 03:51:00,SystemResetWarning,0831.6,4.99,000.00,027.4,026.1,000.0,035.9,028.7,7.8,0000.0,0003.44,0002.59,0002.20
2023-11-15 03:52:00,SystemResetWarning,0831.6,4.99,000.00,027.4,026.1,000.0,035.9,028.7,7.8,0000.0,0003.76,0002.68,0002.18
2023-11-15 03:53:00,SystemResetWarning,0831.6,5.00,000.00,027.4,026.1,000.0,035.9,028.7,7.8,0000.0,0003.72,0002.66,0002.18
2023-11-15 03:54:00,SystemResetWarning,0831.7,5.01,000.00,027.4,026.1,000.0,035.9,028.7,7.8,0000.0,0003.74,0002.67,0002.20
2023-11-15 03:55:00,SystemResetWarning,0831.6,5.01,000.00,027.4,026.1,000.0,035.9,028.7,7.8,0000.0,0003.80,0002.71,0002.22
2023-11-15 03:56:00,SystemResetWarning,0831.7,5.01,000.00,027.4,026.1,000.0,035.9,028.7,7.8,0000.0,0003.83,0002.73,0002.24
2023-11-15 03:57:00,SystemResetWarning,0831.7,5.00,000.00,027.4,026.1,000.0,035.9,028.7,7.8,0000.0,0003.79,0002.72,0002.26
2023-11-15 03:58:00,SystemResetWarning,0831.7,5.00,000.00,027.4,026.1,000.0,035.8,028.7,7.8,0000.0,0003.83,0002.72,0002.27
2023-11-15 03:59:00,SystemResetWarning,0831.7,4.99,000.00,027.4,026.1,000.0,035.8,028.6,7.8,0000.0,0003.99,0002.76,0002.28
